| time (UTC) | temp C | wind direction | speed KPH | gust KPH | rain 1hr cm | rain 24hr cm | rain mn cm | humidity % | barometer mb |
| 20260508033013 | 9 | 23 | 1.6 | 8.0 | 0.00 | 0.00 | 0.00 | 94 | 1013.6 |
| 20260508031509 | 9 | 355 | 1.6 | 6.4 | 0.00 | 0.00 | 0.00 | 94 | 1013.4 |
| 20260508030008 | 9 | 9 | 3.2 | 9.7 | 0.00 | 0.00 | 0.00 | 93 | 1013.5 |
| 20260508024510 | 9 | 22 | 1.6 | 9.7 | 0.00 | 0.00 | 0.00 | 93 | 1013.5 |
| 20260508023004 | 9 | 355 | 3.2 | 6.4 | 0.00 | 0.00 | 0.00 | 93 | 1013.7 |
| 20260508021503 | 9 | 5 | 1.6 | 9.7 | 0.00 | 0.00 | 0.00 | 93 | 1013.7 |
| 20260508020001 | 9 | 5 | 0.0 | 6.4 | 0.00 | 0.00 | 0.00 | 93 | 1013.9 |
| 20260508014559 | 10 | 319 | 1.6 | 8.0 | 0.00 | 0.10 | 0.00 | 93 | 1014.0 |
| 20260508013057 | 10 | 5 | 1.6 | 12.9 | 0.00 | 0.10 | 0.00 | 93 | 1014.0 |
| 20260508011601 | 10 | 335 | 1.6 | 9.7 | 0.00 | 0.10 | 0.00 | 92 | 1014.1 |
| 20260508010052 | 10 | 33 | 3.2 | 8.0 | 0.00 | 0.10 | 0.00 | 92 | 1014.1 |
| 20260508004552 | 10 | 22 | 0.0 | 8.0 | 0.00 | 0.64 | 0.00 | 92 | 1014.2 |
| 20260508003051 | 10 | 5 | 0.0 | 6.4 | 0.00 | 0.64 | 0.00 | 92 | 1014.4 |
| 20260508001550 | 10 | 319 | 1.6 | 8.0 | 0.00 | 0.64 | 0.00 | 92 | 1014.5 |
| 20260508000105 | 10 | 19 | 0.0 | 0.0 | 0.00 | 0.64 | 0.00 | 92 | 1014.6 |
| 20260507234549 | 10 | 5 | 0.0 | 4.8 | 0.00 | 0.64 | 0.00 | 92 | 1014.6 |
| 20260507233045 | 10 | 360 | 1.6 | 6.4 | 0.00 | 0.64 | 0.00 | 92 | 1014.9 |
| 20260507231545 | 10 | 20 | 0.0 | 0.0 | 0.00 | 0.64 | 0.00 | 91 | 1015.3 |
| 20260507230039 | 10 | 20 | 0.0 | 1.6 | 0.00 | 0.64 | 0.00 | 90 | 1015.4 |
| 20260507224537 | 11 | 19 | 0.0 | 4.8 | 0.00 | 0.79 | 0.00 | 89 | 1015.4 |
| 20260507223037 | 11 | 11 | 1.6 | 4.8 | 0.00 | 0.79 | 0.00 | 89 | 1015.4 |
| 20260507221534 | 11 | 355 | 1.6 | 9.7 | 0.00 | 0.79 | 0.00 | 89 | 1015.3 |
| 20260507220031 | 11 | 351 | 0.0 | 3.2 | 0.00 | 0.79 | 0.00 | 89 | 1015.3 |
| 20260507214533 | 11 | 350 | 0.0 | 1.6 | 0.00 | 0.79 | 0.79 | 90 | 1015.1 |
| 20260507213037 | 11 | 350 | 0.0 | 1.6 | 0.00 | 0.79 | 0.79 | 89 | 1015.1 |
| 20260507211541 | 12 | 351 | 0.0 | 3.2 | 0.00 | 0.79 | 0.79 | 88 | 1015.0 |
| 20260507210029 | 11 | 21 | 0.0 | 0.0 | 0.00 | 0.79 | 0.79 | 88 | 1015.1 |
| 20260507204527 | 12 | 21 | 0.0 | 4.8 | 0.00 | 0.79 | 0.79 | 87 | 1015.0 |
| 20260507203026 | 12 | 23 | 0.0 | 1.6 | 0.00 | 0.79 | 0.79 | 86 | 1015.1 |
| 20260507201525 | 12 | 19 | 0.0 | 3.2 | 0.00 | 0.79 | 0.79 | 86 | 1015.0 |
| 20260507200024 | 13 | 19 | 0.0 | 6.4 | 0.00 | 0.79 | 0.79 | 83 | 1015.0 |
| 20260507194522 | 13 | 191 | 0.0 | 3.2 | 0.00 | 0.79 | 0.79 | 81 | 1014.9 |
| 20260507193023 | 13 | 190 | 0.0 | 3.2 | 0.00 | 0.79 | 0.79 | 83 | 1014.7 |
| 20260507191525 | 13 | 189 | 0.0 | 1.6 | 0.00 | 0.79 | 0.79 | 83 | 1014.6 |
| 20260507190023 | 14 | 189 | 0.0 | 3.2 | 0.00 | 0.79 | 0.79 | 80 | 1014.4 |
| 20260507184519 | 14 | 189 | 0.0 | 0.0 | 0.00 | 0.79 | 0.79 | 80 | 1014.3 |
| 20260507183019 | 15 | 189 | 1.6 | 3.2 | 0.00 | 0.79 | 0.79 | 76 | 1014.2 |
| 20260507181521 | 16 | 189 | 0.0 | 0.0 | 0.00 | 0.79 | 0.79 | 78 | 1014.2 |
| 20260507180021 | 16 | 189 | 0.0 | 0.0 | 0.00 | 0.79 | 0.79 | 74 | 1014.0 |
| 20260507174539 | 17 | 189 | 0.0 | 3.2 | 0.00 | 0.79 | 0.79 | 71 | 1013.9 |
| 20260507173022 | 17 | 189 | 1.6 | 4.8 | 0.00 | 0.79 | 0.79 | 69 | 1013.6 |
| 20260507171520 | 18 | 189 | 3.2 | 6.4 | 0.00 | 0.79 | 0.79 | 66 | 1013.6 |
| 20260507170018 | 19 | 188 | 1.6 | 4.8 | 0.00 | 0.79 | 0.79 | 62 | 1013.5 |
| 20260507164517 | 20 | 188 | 1.6 | 3.2 | 0.00 | 0.79 | 0.79 | 61 | 1013.5 |
| 20260507163020 | 21 | 188 | 0.0 | 3.2 | 0.00 | 0.79 | 0.79 | 57 | 1013.4 |
| 20260507161519 | 21 | 188 | 1.6 | 6.4 | 0.00 | 0.79 | 0.79 | 53 | 1013.5 |
| 20260507160016 | 22 | 332 | 1.6 | 4.8 | 0.00 | 0.79 | 0.79 | 49 | 1013.7 |
| 20260507154518 | 22 | 333 | 0.0 | 3.2 | 0.00 | 0.79 | 0.79 | 50 | 1013.7 |
| 20260507153017 | 22 | 355 | 0.0 | 4.8 | 0.00 | 0.79 | 0.79 | 54 | 1013.7 |
| 20260507151511 | 22 | 346 | 0.0 | 3.2 | 0.00 | 0.79 | 0.79 | 51 | 1013.7 |
| 20260507150008 | 21 | 341 | 1.6 | 4.8 | 0.00 | 0.79 | 0.79 | 55 | 1013.8 |
| 20260507144507 | 22 | 327 | 1.6 | 8.0 | 0.00 | 0.79 | 0.79 | 47 | 1013.9 |
| 20260507143005 | 22 | 47 | 0.0 | 6.4 | 0.00 | 0.79 | 0.79 | 46 | 1014.1 |
| 20260507141502 | 22 | 290 | 1.6 | 6.4 | 0.00 | 0.79 | 0.79 | 46 | 1014.2 |
| 20260507134551 | 22 | 335 | 3.2 | 9.7 | 0.00 | 0.79 | 0.79 | 47 | 1014.5 |
| 20260507133059 | 22 | 328 | 1.6 | 6.4 | 0.00 | 0.79 | 0.79 | 47 | 1014.6 |
| 20260507131613 | 21 | 9 | 1.6 | 9.7 | 0.00 | 0.79 | 0.79 | 50 | 1014.8 |
| 20260507130047 | 21 | 17 | 1.6 | 12.9 | 0.00 | 0.79 | 0.79 | 52 | 1015.0 |
| 20260507124553 | 21 | 5 | 3.2 | 9.7 | 0.00 | 0.79 | 0.79 | 55 | 1014.9 |
| 20260507123046 | 21 | 5 | 4.8 | 12.9 | 0.00 | 0.79 | 0.79 | 55 | 1014.9 |
| 20260507121544 | 21 | 19 | 3.2 | 6.4 | 0.00 | 0.79 | 0.79 | 55 | 1015.0 |
| 20260507120044 | 21 | 342 | 4.8 | 9.7 | 0.00 | 0.79 | 0.79 | 53 | 1015.2 |
| 20260507114543 | 21 | 221 | 3.2 | 9.7 | 0.00 | 0.79 | 0.79 | 64 | 1015.2 |
| 20260507113104 | 21 | 254 | 4.8 | 12.9 | 0.00 | 0.79 | 0.79 | 52 | 1015.2 |
| 20260507111542 | 21 | 5 | 1.6 | 11.3 | 0.00 | 0.79 | 0.79 | 60 | 1015.3 |
| 20260507110040 | 20 | 185 | 3.2 | 14.5 | 0.00 | 0.79 | 0.79 | 57 | 1015.3 |
| 20260507104539 | 20 | 208 | 4.8 | 16.1 | 0.00 | 0.79 | 0.79 | 63 | 1015.5 |
| 20260507103034 | 20 | 238 | 3.2 | 12.9 | 0.00 | 0.79 | 0.79 | 61 | 1015.6 |
| 20260507101531 | 20 | 169 | 1.6 | 14.5 | 0.00 | 0.79 | 0.79 | 70 | 1015.7 |
| 20260507100041 | 19 | 180 | 4.8 | 11.3 | 0.00 | 0.79 | 0.79 | 71 | 1015.7 |
| 20260507094526 | 18 | 212 | 1.6 | 11.3 | 0.00 | 0.79 | 0.79 | 71 | 1015.8 |
| 20260507093027 | 18 | 175 | 6.4 | 12.9 | 0.00 | 0.79 | 0.79 | 74 | 1015.9 |
| 20260507091522 | 18 | 182 | 4.8 | 11.3 | 0.00 | 0.79 | 0.79 | 73 | 1015.9 |
| 20260507090018 | 18 | 294 | 1.6 | 11.3 | 0.00 | 0.79 | 0.79 | 81 | 1015.9 |
| 20260507084538 | 17 | 187 | 4.8 | 11.3 | 0.00 | 0.79 | 0.79 | 79 | 1016.1 |
| 20260507083022 | 17 | 173 | 6.4 | 12.9 | 0.00 | 0.79 | 0.79 | 80 | 1016.2 |
| 20260507081512 | 17 | 175 | 1.6 | 9.7 | 0.00 | 0.79 | 0.79 | 82 | 1016.1 |
| 20260507080008 | 16 | 144 | 0.0 | 3.2 | 0.00 | 0.79 | 0.79 | 87 | 1016.1 |
| 20260507074507 | 15 | 132 | 0.0 | 11.3 | 0.00 | 0.79 | 0.79 | 88 | 1016.1 |
| 20260507073004 | 15 | 186 | 0.0 | 8.0 | 0.00 | 0.79 | 0.79 | 89 | 1016.0 |
| 20260507071502 | 15 | 187 | 0.0 | 8.0 | 0.00 | 0.79 | 0.79 | 90 | 1016.0 |
| 20260507070108 | 15 | 132 | 0.0 | 9.7 | 0.00 | 0.79 | 0.79 | 90 | 1015.8 |
| 20260507064602 | 15 | 128 | 1.6 | 8.0 | 0.00 | 0.79 | 0.79 | 90 | 1015.8 |
| 20260507063057 | 14 | 130 | 0.0 | 0.0 | 0.00 | 0.79 | 0.79 | 91 | 1015.7 |
| 20260507061555 | 14 | 173 | 0.0 | 8.0 | 0.00 | 0.79 | 0.79 | 91 | 1015.7 |
| 20260507060053 | 14 | 123 | 0.0 | 8.0 | 0.00 | 0.79 | 0.79 | 92 | 1015.5 |
| 20260507054552 | 13 | 142 | 0.0 | 6.4 | 0.00 | 0.79 | 0.79 | 92 | 1015.6 |
| 20260507053052 | 13 | 173 | 0.0 | 1.6 | 0.00 | 0.79 | 0.79 | 93 | 1015.6 |
| 20260507051549 | 13 | 175 | 0.0 | 1.6 | 0.00 | 0.79 | 0.79 | 93 | 1015.7 |
| 20260507050103 | 13 | 174 | 0.0 | 0.0 | 0.00 | 0.79 | 0.79 | 93 | 1015.5 |
| 20260507044551 | 13 | 172 | 0.0 | 4.8 | 0.00 | 0.79 | 0.79 | 93 | 1015.3 |
| 20260507043041 | 13 | 174 | 0.0 | 0.0 | 0.00 | 0.79 | 0.79 | 93 | 1015.1 |
| 20260507041544 | 13 | 174 | 0.0 | 0.0 | 0.00 | 0.79 | 0.79 | 93 | 1015.0 |
| 20260507040038 | 13 | 174 | 0.0 | 4.8 | 0.00 | 0.79 | 0.79 | 93 | 1014.8 |
| 20260507034541 | 13 | 293 | 0.0 | 3.2 | 0.00 | 0.81 | 0.79 | 93 | 1014.7 |